Stations météo

réclame
Mon MeteoGroup
Boscombe Down, Grande-Bretagne (3746): Température de l'air & dewpoint: 13.07.2018 18:00:00 - 19.07.2018 18:00:00 (BST)Boscombe Down, Grande-Bretagne (3746): Vitesse du vent: 13.07.2018 18:00:00 - 19.07.2018 18:00:00 (BST)Boscombe Down, Grande-Bretagne (3746): Direction du vent: 13.07.2018 18:00:00 - 19.07.2018 18:00:00 (BST)Boscombe Down, Grande-Bretagne (3746): reduced air pressure: 13.07.2018 18:00:00 - 19.07.2018 18:00:00 (BST)Boscombe Down, Grande-Bretagne (3746): visibility: 13.07.2018 18:00:00 - 19.07.2018 18:00:00 (BST)Boscombe Down, Grande-Bretagne (3746): Quantités de précipitations: 13.07.2018 18:00:00 - 19.07.2018 18:00:00 (BST)
Date & Time tt [°C] td [°C] ff [km/h] ff [knt] dd ppp [hPa] vv [km] rr [mm]
19.07.2018 18:00:00 24,6 11,0 5 3 S 1016,7 10 0,0
19.07.2018 17:00:00 24,8 10,8 4 2 NNE 1016,9 10 0,0
19.07.2018 16:00:00 26,4 10,6 4 2 NNW 1017,2 10 0,0
19.07.2018 15:00:00 25,3 11,1 13 7 W 1017,6 10 0,0
19.07.2018 14:00:00 24,6 10,7 8 4 N 1018,1 10 0,0
19.07.2018 13:00:00 23,8 11,3 11 6 N 1018,5 10 0,0
19.07.2018 12:00:00 23,0 10,2 5 3 NW 1018,6 10 0,0
19.07.2018 11:00:00 22,0 10,4 4 2 N 1018,9 10 0,0
19.07.2018 10:00:00 21,0 11,6 4 2 WNW 1019,1 10 0,0
19.07.2018 09:00:00 18,0 11,4 4 2 NW 1019,5 10 0,0
19.07.2018 08:00:00 15,1 11,6 5 3 NW 1019,7 30 0,0
19.07.2018 07:00:00 13,1 10,7 9 5 NW 1019,6 10 0,0
19.07.2018 06:00:00 12,3 10,4 9 5 NW 1019,6 19 0,0
19.07.2018 05:00:00 12,4 10,6 9 5 NW 1019,5 10 0,0
19.07.2018 04:00:00 12,8 10,8 9 5 WNW 1019,6 35 0,0
19.07.2018 03:00:00 12,8 11,0 11 6 WNW 1019,7 30 0,0
19.07.2018 02:00:00 13,1 11,1 13 7 NW 1019,9 40 0,0
19.07.2018 01:00:00 13,8 11,4 11 6 WNW 1019,8 25 0,0
19.07.2018 00:00:00 15,0 11,7 9 5 NW 1019,4 45 0,0
18.07.2018 23:00:00 16,1 11,8 11 6 NW 1019,2 10 0,0
18.07.2018 22:00:00 17,6 11,4 9 5 WNW 1019,2 50 0,0
18.07.2018 21:00:00 19,0 11,4 8 4 WNW 1018,8 50 0,0
18.07.2018 20:00:00 20,3 11,0 11 6 WNW 1018,7 50 0,0
18.07.2018 19:00:00 20,9 11,0 16 9 WSW 1018,4 10 0,0
18.07.2018 18:00:00 21,5 10,0 11 6 SSW 1018,3 10 0,0
18.07.2018 17:00:00 21,8 10,6 11 6 SSW 1018,4 10 0,0
18.07.2018 16:00:00 21,6 10,4 16 9 S 1018,4 10 0,0
18.07.2018 15:00:00 20,5 9,0 13 7 WSW 1018,5 10 0,0
18.07.2018 14:00:00 21,7 8,3 11 6 SSW 1018,2 10 0,0
18.07.2018 13:00:00 23,5 11,0 11 6 SSW 1018,2 10 0,0
18.07.2018 12:00:00 20,3 9,4 9 5 SW 1018,7 10 0,0
18.07.2018 11:00:00 20,7 10,4 11 6 WSW 1018,7 10 0,0
18.07.2018 10:00:00 19,1 12,8 13 7 SSW 1018,9 10 0,0
18.07.2018 09:00:00 16,7 14,0 8 4 S 1018,9 10 0,0
18.07.2018 08:00:00 15,0 13,6 5 3 SE 1018,8 10 0,0
18.07.2018 07:00:00 13,7 12,7 4 2 ESE 1018,5 10 0,0
18.07.2018 06:00:00 12,8 12,2 4 2 ESE 1018,3 21 0,0
18.07.2018 05:00:00 12,7 12,0 5 3 S 1018,0 20 0,0
18.07.2018 04:00:00 12,7 12,1 8 4 S 1018,0 13 0,0
18.07.2018 03:00:00 13,0 12,2 5 3 S 1018,1 13 0,0
18.07.2018 02:00:00 13,0 12,1 5 3 SSW 1018,2 10 0,0
18.07.2018 01:00:00 12,9 11,9 5 3 SSE 1018,2 28 0,0
18.07.2018 00:00:00 13,8 11,9 9 5 S 1018,3 45 0,0
17.07.2018 23:00:00 15,0 12,4 8 4 SSW 1018,2 50 0,0
17.07.2018 22:00:00 15,9 12,0 11 6 WSW 1017,9 10 0,0
17.07.2018 21:00:00 17,3 11,5 13 7 WSW 1017,5 50 0,0
17.07.2018 20:00:00 18,2 10,9 18 10 W 1017,1 50 0,0
17.07.2018 19:00:00 19,5 10,4 18 10 WSW 1016,7 50 0,0
17.07.2018 18:00:00 20,0 10,6 16 9 WSW 1016,7 10 0,0
17.07.2018 17:00:00 19,9 9,4 22 12 WSW 1016,6 10 0,0
17.07.2018 16:00:00 20,8 9,7 16 9 SW 1016,6 10 0,0
17.07.2018 15:00:00 20,6 9,2 22 12 WSW 1016,7 10 0,0
17.07.2018 14:00:00 21,0 10,3 16 9 WSW 1016,6 10 0,0
17.07.2018 13:00:00 20,0 9,8 21 11 WSW 1016,8 10 0,0
17.07.2018 12:00:00 19,2 9,8 21 11 WSW 1016,7 10 0,0
17.07.2018 11:00:00 19,8 9,1 21 11 W 1016,5 10 0,0
17.07.2018 10:00:00 19,7 10,6 24 13 WSW 1016,6 10 0,0
17.07.2018 09:00:00 18,5 11,6 16 9 W 1016,5 10 0,0
17.07.2018 08:00:00 14,9 11,9 13 7 WSW 1016,6 10 0,0
17.07.2018 07:00:00 12,7 11,2 9 5 SW 1016,4 10 0,0
17.07.2018 06:00:00 10,9 10,2 4 2 SSW 1016,1 10 0,0
17.07.2018 05:00:00 10,6 9,7 5 3 WSW 1015,7 40 0,0
17.07.2018 04:00:00 11,2 10,3 9 5 WSW 1015,6 10 0,0
17.07.2018 03:00:00 11,9 10,5 11 6 WSW 1015,6 40 0,0
17.07.2018 02:00:00 12,3 10,6 11 6 W 1015,6 40 0,0
17.07.2018 01:00:00 13,0 10,7 13 7 W 1015,7 10 0,0
17.07.2018 00:00:00 13,9 10,6 15 8 W 1015,6 40 0,0
16.07.2018 23:00:00 14,6 10,4 18 10 W 1015,4 50 0,0
16.07.2018 22:00:00 16,2 10,3 24 13 W 1014,9 50 0,0
16.07.2018 21:00:00 18,6 11,3 22 12 W 1014,0 10 0,0
16.07.2018 20:00:00 19,3 13,9 18 10 WNW 1013,5 50 0,0
16.07.2018 19:00:00 20,6 14,9 22 12 W 1013,2 40 0,0
16.07.2018 18:00:00 24,0 14,3 28 15 W 1012,4 10 0,0
16.07.2018 17:00:00 25,8 10,1 22 12 SSW 1012,4 10 0,0
16.07.2018 16:00:00 24,8 10,0 18 10 SW 1012,6 10 0,0
16.07.2018 15:00:00 25,6 11,1 15 8 SW 1013,0 10 0,0
16.07.2018 14:00:00 24,3 9,9 11 6 SW 1013,5 10 0,0
16.07.2018 13:00:00 23,3 12,5 11 6 SW 1013,9 10 0,0
16.07.2018 12:00:00 22,6 11,8 9 5 W 1014,1 10 0,0
16.07.2018 11:00:00 24,1 12,8 8 4 W 1014,1 10 0,0
16.07.2018 10:00:00 22,1 12,6 5 3 NW 1014,2 10 0,0
16.07.2018 09:00:00 21,4 11,5 4 2 WNW 1014,3 10 0,0
16.07.2018 08:00:00 18,3 12,4 8 4 WNW 1014,4 10 0,0
16.07.2018 07:00:00 15,7 10,8 4 2 NW 1014,6 10 0,0
16.07.2018 06:00:00 13,5 10,1 8 4 NW 1015,0 40 0,0
16.07.2018 05:00:00 13,8 10,0 9 5 WNW 1015,0 35 0,0
16.07.2018 04:00:00 14,5 10,5 13 7 WNW 1015,1 50 0,0
16.07.2018 03:00:00 15,0 11,2 11 6 NW 1015,1 50 0,0
16.07.2018 02:00:00 15,9 11,5 11 6 WNW 1015,3 50 0,0
16.07.2018 01:00:00 16,5 12,0 9 5 WNW 1015,5 50 0,0
16.07.2018 00:00:00 17,6 12,1 11 6 WNW 1015,5 50 0,0
15.07.2018 23:00:00 18,7 11,9 11 6 WNW 1015,6 50 0,0
15.07.2018 22:00:00 19,8 13,0 13 7 W 1015,4 50 0,0
15.07.2018 21:00:00 21,9 13,0 21 11 W 1014,5 50 0,0
15.07.2018 20:00:00 24,1 11,2 9 5 W 1014,0 45 0,0
15.07.2018 19:00:00 25,4 10,0 8 4 WNW 1013,9 45 0,0
15.07.2018 18:00:00 26,6 9,5 15 8 WNW 1014,4 40 0,0
15.07.2018 17:00:00 26,5 9,2 9 5 W 1014,7 45 0,0
15.07.2018 16:00:00 27,1 10,8 13 7 W 1015,1 35 0,0
15.07.2018 15:00:00 26,0 10,5 9 5 WNW 1015,4 45 0,0
15.07.2018 14:00:00 25,8 10,9 9 5 N 1015,9 35 0,0
15.07.2018 13:00:00 24,3 11,0 11 6 W 1016,4 35 0,0
15.07.2018 12:00:00 23,8 10,0 8 4 NW 1016,8 10 0,0
15.07.2018 11:00:00 23,0 11,6 8 4 WNW 1017,0 45 0,0
15.07.2018 10:00:00 21,0 12,6 8 4 WNW 1017,2 10 0,0
15.07.2018 09:00:00 18,8 14,2 8 4 NW 1017,8 28 0,0
15.07.2018 08:00:00 16,3 13,8 9 5 NW 1017,9 16 0,0
15.07.2018 07:00:00 14,0 13,1 9 5 WNW 1018,0 5 0,0
15.07.2018 06:00:00 12,5 12,0 8 4 NW 1017,9 7 0,0
15.07.2018 05:00:00 12,5 11,8 9 5 NW 1018,0 8 0,0
15.07.2018 04:00:00 13,5 12,0 9 5 NW 1018,3 14 0,0
15.07.2018 03:00:00 14,1 12,1 9 5 WNW 1018,4 17 0,0
15.07.2018 02:00:00 14,4 12,2 9 5 WNW 1018,6 25 0,0
15.07.2018 01:00:00 14,7 12,3 9 5 WNW 1018,7 40 0,0
15.07.2018 00:00:00 15,4 12,4 9 5 NW 1018,8 45 0,0
14.07.2018 23:00:00 17,2 12,5 9 5 WNW 1018,7 10 0,0
14.07.2018 22:00:00 18,4 12,2 13 7 WSW 1018,7 50 0,0
14.07.2018 21:00:00 20,0 11,7 11 6 SW 1018,3 50 0,0
14.07.2018 20:00:00 22,1 10,9 15 8 SW 1018,3 50 0,0
14.07.2018 19:00:00 23,6 10,8 21 11 S 1018,2 50 0,0
14.07.2018 18:00:00 24,3 10,7 16 9 S 1018,5 10 0,0
14.07.2018 17:00:00 24,0 10,1 13 7 S 1018,6 50 0,0
14.07.2018 16:00:00 23,9 10,5 15 8 S 1018,9 45 0,0
14.07.2018 15:00:00 24,6 11,2 13 7 SSW 1019,3 10 0,0
14.07.2018 14:00:00 24,2 11,4 13 7 SSW 1019,7 40 0,0
14.07.2018 13:00:00 23,6 12,0 13 7 SSE 1020,2 45 0,0
14.07.2018 12:00:00 23,0 13,0 15 8 SSW 1020,7 10 0,0
14.07.2018 11:00:00 21,1 13,4 11 6 SSW 1021,2 30 0,0
14.07.2018 10:00:00 19,4 14,2 8 4 S 1021,4 10 0,0
14.07.2018 09:00:00 16,8 15,9 4 2 S 1021,5 0,9 0,0
14.07.2018 08:00:00 14,5 14,2 0 0 N 1021,7 0,1 0,0
14.07.2018 07:00:00 12,5 12,4 4 2 N 1021,4 0,1 0,0
14.07.2018 06:00:00 12,2 12,2 5 3 NW 1021,3 0,1 0,2
14.07.2018 05:00:00 12,2 12,2 5 3 NNW 1021,5 - 0,0
14.07.2018 04:00:00 13,1 13,0 5 3 NW 1021,8 0,1 0,0
14.07.2018 03:00:00 14,6 14,4 2 1 SSE 1021,8 0,1 0,0
14.07.2018 02:00:00 14,5 14,3 4 2 ESE 1021,8 0,6 0,0
14.07.2018 01:00:00 14,7 14,5 8 4 E 1022,1 0,5 0,0
14.07.2018 00:00:00 15,8 15,6 2 1 ESE 1022,1 - 0,0
13.07.2018 23:00:00 16,4 16,0 5 3 W 1021,9 4,8 0,0
13.07.2018 22:00:00 16,8 16,1 2 1 S 1021,6 9 0,0
13.07.2018 21:00:00 17,5 16,9 4 2 W 1021,1 8 0,0
13.07.2018 20:00:00 17,6 16,3 5 3 SSE 1021,1 14 0,4
13.07.2018 19:00:00 16,5 16,0 5 3 NW 1021,4 8 5,8
13.07.2018 18:00:00 16,2 15,5 16 9 W 1022,2 6 5,0

tt = Température de l'air
td = dewpoint
ff = Vitesse du vent
dd = Direction du vent
ppp = reduced air pressure
vv = visibility
rr = Quantités de précipitations

stations d'obs. à proximité